Date,TemperatureHighF,TemperatureAvgF,TemperatureLowF,DewpointHighF,DewpointAvgF,DewpointLowF,HumidityHigh,HumidityAvg,HumidityLow,PressureMaxIn,PressureMinIn,WindSpeedMaxMPH,WindSpeedAvgMPH,GustSpeedMaxMPH,PrecipitationSumIn
2013-1-1,40.1,31.7,26.6,34.1,27.6,22.8,87,85,78,30.33,30.18,7,1,7,0.01
2013-1-2,41.8,29.7,22.3,34.7,25.5,19.0,88,84,71,30.18,30.06,9,1,9,0.00
2013-1-3,37.3,30.3,21.2,32.8,26.4,17.9,88,85,79,30.13,30.00,4,1,5,0.01
2013-1-4,52.6,41.1,35.1,47.5,36.3,31.0,87,83,72,30.20,30.05,6,1,6,0.00
2013-1-5,40.9,38.9,36.7,36.7,34.5,33.0,87,84,77,30.09,30.02,4,1,4,0.01
2013-1-6,47.2,41.8,37.6,43.2,37.6,33.5,87,85,82,30.11,29.97,7,1,7,0.01
2013-1-7,54.4,47.4,44.6,49.6,39.8,34.5,85,75,58,30.10,29.92,13,3,13,0.18
2013-1-8,56.7,50.4,45.5,52.2,43.6,35.2,86,78,62,30.09,29.86,15,4,15,0.04
2013-1-9,51.5,42.2,34.6,45.6,37.7,29.7,87,84,80,29.86,29.61,13,4,19,0.31
2013-1-10,43.6,36.8,31.9,39.6,31.3,24.8,86,80,60,29.98,29.85,7,2,10,0.13
2013-1-11,40.7,33.9,27.0,36.2,29.4,23.6,87,84,77,30.15,29.97,8,2,8,0.00
2013-1-12,35.8,27.5,22.1,32.2,23.8,18.8,88,86,78,30.26,30.14,5,1,7,0.01
2013-1-13,31.0,29.0,27.2,27.4,24.8,21.1,87,84,77,30.37,30.25,6,1,6,0.00
2013-1-14,37.1,31.3,27.4,32.7,27.5,23.7,87,86,82,30.44,30.35,5,1,5,0.00
2013-1-15,41.0,35.9,31.0,36.9,31.9,27.1,87,85,83,30.52,30.41,9,2,9,0.00
2013-1-16,36.0,34.1,32.2,32.4,29.5,27.1,87,83,80,30.52,30.36,6,1,6,0.00
2013-1-17,35.3,33.0,31.5,29.7,26.1,20.3,83,76,60,30.36,30.19,5,1,5,0.00
2013-1-18,36.7,33.6,32.0,30.3,23.2,18.6,79,66,57,30.20,30.13,3,1,3,0.00
2013-1-19,33.3,31.5,29.5,25.4,21.0,16.6,74,65,56,30.22,30.15,3,1,3,0.01
2013-1-20,33.5,30.6,28.6,26.0,19.5,17.1,76,63,57,30.23,30.13,3,1,3,0.00
2013-1-21,32.0,29.8,27.7,26.3,20.0,16.9,80,67,60,30.14,30.04,4,1,4,0.00
2013-1-22,33.5,30.2,27.2,26.6,20.4,15.7,77,67,61,30.04,29.82,4,1,4,0.00
2013-1-23,36.7,34.1,31.0,27.6,22.9,18.5,71,63,59,30.06,29.76,4,1,4,0.32
2013-1-24,41.4,36.7,31.3,22.5,18.8,15.8,59,48,42,30.09,29.99,4,1,4,0.20
2013-1-25,54.7,44.3,32.8,47.0,23.7,16.8,77,46,27,30.02,29.84,9,1,9,0.06
2013-1-26,47.5,39.4,33.1,41.7,22.7,11.0,81,53,29,29.99,29.83,8,1,8,0.23
2013-1-27,43.9,38.6,32.0,32.9,17.2,8.5,68,42,28,30.05,29.96,8,1,8,0.15
2013-1-28,45.0,42.1,36.9,37.5,24.2,-0.8,77,52,18,30.13,29.98,13,3,13,0.09
2013-1-29,47.9,44.5,37.6,40.7,33.4,14.5,80,65,37,30.39,30.13,11,2,11,0.01
2013-1-30,50.6,45.5,39.6,42.0,25.0,3.5,76,46,22,30.38,30.32,10,3,10,0.03
2013-1-31,54.4,46.7,42.5,47.5,28.1,-1.4,80,52,14,30.33,30.21,8,1,8,0.01
2013-2-1,53.5,43.0,34.4,46.4,19.2,-11.5,79,45,1,30.23,30.12,8,1,8,0.00
2013-2-2,43.6,38.1,32.0,26.5,4.7,-15.1,60,28,1,30.20,30.13,4,1,4,0.01
2013-2-3,49.0,43.2,36.9,40.6,9.1,-14.0,75,29,1,30.22,30.09,5,1,5,0.00
2013-2-4,52.2,45.0,37.8,45.5,28.5,-26.8,78,57,1,30.10,29.82,18,1,18,0.00
2013-2-5,52.7,46.0,42.5,45.9,34.4,17.4,79,65,30,29.93,29.79,15,4,15,0.21
2013-2-6,52.0,45.5,41.0,44.7,31.2,0.3,79,60,18,29.97,29.71,16,4,16,0.11
2013-2-7,46.8,39.0,32.8,40.1,28.8,11.4,79,67,35,29.98,29.81,11,2,11,0.05
2013-2-8,46.3,36.8,30.4,39.8,19.1,-12.7,79,53,11,30.14,29.98,7,1,7,0.00
2013-2-9,47.3,41.0,34.6,40.8,27.5,12.1,78,59,36,30.18,30.12,4,1,4,0.03
2013-2-10,46.4,43.9,41.9,39.7,23.8,-0.5,78,50,16,30.22,30.15,7,1,7,0.01
2013-2-11,50.2,44.7,40.7,42.0,36.1,28.1,79,72,53,30.27,30.18,7,1,7,0.01
2013-2-12,56.0,48.3,43.7,48.3,33.0,7.5,77,58,22,30.36,30.27,11,3,11,0.03
2013-2-13,55.1,48.9,45.7,47.6,38.9,23.9,78,69,41,30.38,30.31,9,2,9,0.00
2013-2-14,58.7,45.9,35.1,49.0,34.9,6.9,78,67,25,30.43,30.32,8,1,8,0.00
2013-2-15,55.4,45.3,38.2,47.8,32.4,6.0,78,62,22,30.33,30.10,8,2,8,0.00
2013-2-16,52.7,44.6,38.5,44.6,17.2,-13.3,77,42,1,30.18,30.08,13,3,13,0.03
2013-2-17,48.4,40.7,34.9,40.8,29.6,11.9,78,65,37,30.17,29.96,6,1,6,0.00
2013-2-18,48.6,40.0,32.6,40.4,29.2,15.1,77,66,43,29.96,29.61,9,2,9,0.03
2013-2-19,51.8,42.5,37.3,42.9,31.0,12.1,77,65,30,29.87,29.53,9,2,9,0.15
2013-2-20,49.7,40.7,34.4,42.2,28.5,8.6,77,62,33,30.00,29.87,13,2,13,0.15
2013-2-21,45.7,40.2,32.4,38.6,18.3,-15.5,76,47,1,30.10,30.00,12,3,12,0.08
2013-2-22,46.1,43.1,37.6,34.7,21.0,-8.3,75,44,11,30.07,29.82,19,6,19,0.43
2013-2-23,48.6,40.1,33.8,41.0,23.4,-29.0,77,55,1,30.32,29.99,13,3,13,0.24
2013-2-24,54.0,42.1,33.5,41.1,28.1,7.0,76,59,31,30.32,29.97,12,2,12,0.00
2013-2-25,49.1,41.7,34.0,39.8,28.0,-9.6,75,60,11,30.28,29.94,17,5,17,0.46
2013-2-26,50.0,39.1,29.7,40.5,22.3,-16.6,75,54,2,30.28,30.11,7,1,7,0.01
2013-2-27,51.7,45.0,37.4,43.7,28.6,8.5,75,54,22,30.19,30.10,8,1,8,0.07
2013-2-28,59.9,51.8,46.6,50.2,19.4,-14.2,72,34,3,30.33,30.08,13,3,13,0.01
2013-3-1,61.9,53.8,47.2,52.3,30.5,-8.9,73,47,8,30.33,30.18,8,2,8,0.01
2013-3-2,54.9,50.3,42.5,46.5,29.5,-5.0,73,49,1,30.19,30.07,11,2,11,0.01
2013-3-3,52.2,41.2,31.5,38.7,28.3,1.4,76,61,24,30.20,30.09,12,2,12,0.01
2013-3-4,55.6,39.5,29.3,43.1,28.4,-1.7,74,65,21,30.09,29.78,6,1,6,0.00
2013-3-5,48.6,41.2,35.1,37.0,18.0,-8.8,70,44,6,29.78,29.49,6,1,10,0.38
2013-3-6,48.1,43.7,38.2,37.0,7.1,-10.8,68,26,1,29.84,29.42,13,3,13,0.37
2013-3-7,57.2,41.7,30.6,43.9,21.7,-32.9,73,49,1,29.93,29.84,7,1,7,0.02
2013-3-8,58.3,40.3,30.8,43.2,23.1,-14.0,73,52,10,30.07,29.88,5,1,5,0.00
2013-3-9,61.9,43.7,29.9,47.4,30.9,-14.4,74,62,3,30.38,30.07,7,1,7,0.00
2013-3-10,58.3,45.4,32.6,47.9,34.2,12.5,72,65,44,30.37,30.27,5,1,5,0.00
2013-3-11,61.4,52.8,47.7,51.5,37.2,20.8,71,56,33,30.28,30.13,6,0,6,0.00
2013-3-12,62.5,51.8,41.0,52.6,30.9,-10.5,72,50,1,30.12,30.03,5,0,5,0.00
2013-3-13,66.2,53.5,45.2,54.1,39.7,15.2,71,60,31,30.11,29.96,7,1,7,0.00
2013-3-14,57.2,51.5,44.3,46.3,40.5,20.3,72,66,44,30.09,29.92,19,4,19,0.00
2013-3-15,65.9,53.2,47.2,52.5,40.1,26.9,71,61,43,30.10,30.05,14,3,14,0.00
2013-3-16,52.2,46.4,40.1,41.8,29.6,-7.9,72,53,12,30.08,29.91,15,3,15,0.15
2013-3-17,50.8,41.6,32.9,40.1,24.8,-16.2,74,56,1,30.20,30.08,12,3,12,0.03
2013-3-18,55.3,42.1,30.2,40.6,29.1,-16.1,73,61,11,30.17,29.99,10,2,10,0.00
2013-3-19,49.3,43.6,38.2,40.3,26.1,-8.1,73,56,1,29.99,29.57,6,1,6,0.65
2013-3-20,51.7,47.7,36.0,41.0,14.7,-14.7,71,31,1,30.09,29.46,23,5,23,0.53
2013-3-21,49.9,40.3,34.2,40.3,14.9,-31.4,72,42,1,30.21,30.09,16,3,16,0.13
2013-3-22,48.8,39.6,33.1,38.4,22.8,-15.4,73,55,11,30.27,30.18,13,2,13,0.09
2013-3-23,51.7,40.3,31.5,39.6,25.8,-3.6,73,58,20,30.26,30.14,9,2,9,0.00
2013-3-24,56.7,48.2,36.0,43.1,36.6,20.7,72,64,52,30.14,29.95,10,2,10,0.00
2013-3-25,58.3,48.0,37.4,44.6,35.5,9.3,71,62,30,29.95,29.79,9,2,9,0.00
2013-3-26,56.2,49.6,43.9,46.4,33.5,-6.3,71,56,11,29.91,29.84,11,2,11,0.01
2013-3-27,64.1,49.7,40.0,52.3,19.2,-13.9,69,34,1,29.88,29.78,10,2,10,0.19
2013-3-28,65.7,53.6,46.3,52.8,21.9,-7.4,69,34,1,30.02,29.87,12,2,12,0.01
2013-3-29,69.1,56.3,47.2,55.6,31.5,-6.5,69,44,1,30.07,30.00,8,2,8,0.01
2013-3-30,76.3,57.6,40.9,56.8,33.4,-10.8,68,44,1,30.04,29.82,11,2,11,0.00
2013-3-31,74.5,58.5,44.6,58.4,43.9,14.6,67,59,27,29.91,29.81,16,3,16,0.00
2013-4-1,60.8,54.9,49.9,50.7,36.9,17.4,69,52,25,30.06,29.90,9,3,9,0.00
2013-4-2,70.6,56.0,47.9,55.8,34.5,-5.8,70,48,1,30.08,29.99,8,2,8,0.00
2013-4-3,65.5,52.9,40.5,53.8,36.3,-8.4,69,55,1,30.03,29.77,6,1,7,0.00
2013-4-4,61.2,55.7,51.7,50.3,22.5,-20.8,69,34,1,29.78,29.57,16,4,16,0.16
2013-4-5,56.2,53.2,51.1,44.8,18.2,-3.6,68,29,1,29.85,29.74,13,4,13,0.12
2013-4-6,57.2,50.6,47.7,46.6,13.3,-6.3,69,26,1,29.90,29.60,15,3,15,0.77
2013-4-7,51.5,47.2,40.9,41.1,25.8,-13.3,71,47,1,29.87,29.51,24,6,24,0.21
2013-4-8,56.9,45.6,36.0,45.6,22.4,-15.2,70,46,1,30.16,29.86,12,3,12,0.02
2013-4-9,61.9,49.3,40.3,49.0,34.8,7.8,69,58,27,30.23,30.13,5,1,5,0.00
2013-4-10,61.2,51.3,43.6,49.9,31.2,-8.2,70,50,3,30.22,30.05,16,4,16,0.01
2013-4-11,58.5,46.6,36.0,44.8,30.1,-13.9,71,56,1,30.23,30.02,6,1,6,0.00
2013-4-12,60.7,46.4,34.9,48.8,29.1,-14.5,70,54,6,30.03,29.77,13,3,13,0.02
2013-4-13,54.7,45.0,37.1,40.3,32.4,13.0,72,62,33,30.01,29.86,16,4,16,0.13
2013-4-14,51.1,43.9,36.9,41.8,29.1,9.0,72,57,27,29.99,29.83,8,2,8,0.15
2013-4-15,56.2,45.7,40.0,43.9,33.6,21.1,72,63,47,30.06,29.82,13,3,13,0.08
2013-4-16,59.9,47.6,36.4,45.5,35.1,11.2,71,62,29,30.28,30.05,14,3,14,0.00
2013-4-17,61.6,48.0,35.5,49.2,35.6,0.9,71,63,18,30.37,30.27,11,2,11,0.00
2013-4-18,65.9,52.7,42.8,50.9,41.1,27.9,70,65,50,30.36,30.21,11,3,11,0.00
2013-4-19,59.4,52.0,48.6,48.7,28.4,-4.8,69,46,1,30.21,30.08,15,4,15,0.18
2013-4-20,63.2,52.9,45.2,50.2,35.6,10.7,71,54,22,30.23,30.13,12,4,12,0.00
2013-4-21,59.4,51.0,43.9,48.9,40.9,33.2,71,68,64,30.18,30.11,9,2,9,0.00
2013-4-22,67.1,54.7,43.2,46.0,38.6,31.8,71,56,36,30.26,30.17,13,3,13,0.02
2013-4-23,71.5,55.1,36.9,43.2,36.6,28.7,73,52,29,30.22,30.00,13,2,13,0.00
2013-4-24,75.8,58.7,38.0,44.7,37.6,28.9,72,48,28,30.08,29.88,11,2,11,0.00
2013-4-25,76.7,58.6,41.8,53.1,43.1,31.6,71,58,41,30.02,29.89,7,2,8,0.00
2013-4-26,80.6,61.5,42.8,56.9,43.6,31.1,69,54,30,30.11,30.02,8,2,8,0.00
2013-4-27,74.5,58.1,44.5,48.2,40.6,35.1,70,54,34,30.15,30.08,14,4,14,0.00
2013-4-28,69.1,57.2,50.4,51.6,43.1,32.9,69,60,46,30.16,30.01,11,4,11,0.00
2013-4-29,61.9,53.1,40.7,45.0,33.9,-4.2,70,51,3,30.11,30.00,15,5,15,0.04
2013-4-30,58.9,46.3,33.3,41.6,34.1,19.9,72,63,49,30.29,30.11,8,2,8,0.00
2013-5-1,70.7,52.4,36.0,45.2,36.3,26.3,72,56,37,30.36,30.28,12,2,12,0.00
2013-5-2,79.9,61.1,39.8,47.8,40.8,30.8,71,50,26,30.28,30.10,12,2,12,0.00
2013-5-3,80.3,62.5,43.9,53.8,43.4,32.7,70,51,35,30.16,29.98,13,2,13,0.00
2013-5-4,84.1,66.5,45.7,53.2,42.3,35.5,69,45,19,29.99,29.73,16,3,16,0.00
2013-5-5,86.2,72.3,55.8,52.7,43.3,35.2,67,36,25,29.75,29.53,17,5,17,0.00
2013-5-6,79.6,62.0,49.1,57.0,47.1,34.6,68,59,39,29.82,29.67,15,4,15,0.00
2013-5-7,73.8,58.9,47.7,57.9,43.5,22.3,67,57,36,29.93,29.81,13,4,13,0.00
2013-5-8,72.5,55.6,49.1,57.3,41.3,27.1,67,59,44,30.02,29.93,9,3,11,0.00
2013-5-9,81.9,63.3,46.8,60.7,46.0,18.3,66,54,29,30.08,29.95,10,2,10,0.00
2013-5-10,83.7,61.1,50.8,63.2,45.5,28.8,66,57,41,30.08,30.00,15,3,16,0.00
2013-5-11,85.9,65.9,50.9,65.3,49.8,28.4,65,56,42,30.09,29.90,13,3,13,0.00
2013-5-12,74.2,63.7,58.1,60.8,48.7,25.3,66,59,32,30.02,29.95,14,3,14,0.00
2013-5-13,67.9,59.0,50.4,52.5,43.0,27.3,69,56,34,30.11,29.95,19,4,19,0.00
2013-5-14,70.7,57.2,43.0,50.9,40.1,9.5,67,54,27,30.11,29.97,9,2,9,0.00
2013-5-16,63.0,56.5,49.9,51.0,33.3,-1.6,68,46,1,29.89,29.83,12,2,12,0.10
2013-5-17,64.8,54.9,48.4,51.0,40.3,22.6,69,58,35,29.99,29.88,13,2,13,0.01
2013-5-18,63.0,54.3,47.9,51.4,36.4,15.5,67,52,24,30.15,29.98,10,2,12,0.05
2013-5-19,68.2,58.3,49.3,54.1,40.2,1.3,68,54,12,30.27,30.15,8,2,10,0.00
2013-5-20,74.9,57.4,42.3,56.1,40.8,3.2,69,55,16,30.20,29.82,10,3,12,0.00
2013-5-21,51.7,47.6,40.7,41.5,25.6,-4.0,68,44,5,29.90,29.74,11,3,15,0.53
2013-5-22,53.5,46.8,41.0,42.7,20.8,-8.7,68,39,11,29.89,29.83,12,4,12,0.11
2013-5-23,56.0,50.0,45.7,45.5,24.6,-0.3,69,40,16,29.92,29.87,14,4,14,0.15
2013-5-24,59.8,52.1,47.0,48.1,28.6,-6.0,69,47,10,29.97,29.88,16,3,16,0.03
2013-5-25,69.7,55.1,42.5,54.6,34.6,-10.3,67,49,3,29.97,29.82,9,2,9,0.07
2013-5-26,63.9,56.1,51.5,51.6,30.9,-3.5,68,45,1,29.94,29.83,17,4,17,0.09
2013-5-27,64.8,55.9,50.8,53.0,27.7,-7.0,67,39,1,29.87,29.64,18,5,18,0.31
2013-5-28,61.9,56.2,51.5,50.2,31.9,-3.3,68,46,1,29.84,29.64,19,4,19,0.19
2013-5-29,63.4,54.6,49.9,51.1,24.0,-3.8,67,36,1,29.97,29.53,19,5,19,0.29
2013-5-30,64.1,55.1,48.1,51.2,33.9,-5.9,68,50,8,30.13,29.96,12,2,12,0.03
2013-5-31,70.9,58.9,45.4,54.7,44.0,15.6,68,58,28,30.20,30.09,9,2,9,0.00
2013-6-1,79.4,61.5,45.5,60.0,45.2,13.1,67,56,28,30.11,29.90,11,2,11,0.00
2013-6-2,73.1,61.3,52.2,57.4,47.2,31.7,67,60,42,29.96,29.91,12,2,12,0.00
2013-6-3,78.3,62.4,46.4,58.0,45.2,-5.5,66,54,8,29.97,29.88,12,2,12,0.00
2013-6-4,67.7,54.2,48.1,53.6,40.1,24.6,66,59,40,29.95,29.92,8,2,8,0.00
2013-6-5,85.7,69.3,52.9,62.6,52.6,31.8,66,56,40,29.95,29.84,8,3,10,0.00
2013-6-6,85.0,68.2,54.7,64.9,51.6,28.9,66,56,39,29.94,29.85,14,4,14,0.00
2013-6-7,81.5,66.1,50.8,62.1,50.4,32.9,67,58,34,30.01,29.93,12,3,12,0.00
2013-6-8,82.6,66.2,50.4,57.5,46.3,20.6,66,50,29,30.03,29.91,12,3,12,0.00
2013-6-9,78.5,63.4,50.8,56.5,48.6,36.3,68,59,44,29.97,29.84,12,3,12,0.00
2013-6-10,74.9,59.1,46.4,54.2,44.6,30.7,68,59,42,29.88,29.77,15,4,15,0.00
2013-6-11,66.8,57.8,52.4,49.8,44.6,39.8,68,62,50,30.03,29.87,14,4,14,0.00
2013-6-12,67.0,55.9,44.5,52.4,41.0,0.8,67,58,17,30.07,30.01,13,4,13,0.00
2013-6-13,65.2,55.2,49.0,52.9,32.0,-3.8,66,46,3,30.18,30.05,14,3,14,0.22
2013-6-14,74.2,59.5,43.7,56.9,39.5,-6.7,66,50,3,30.18,29.84,11,2,11,0.01
2013-6-15,80.3,62.1,47.3,60.6,43.9,1.5,65,53,15,29.89,29.79,12,2,12,0.00
2013-6-16,77.0,62.8,50.9,59.0,46.6,24.9,66,56,34,30.00,29.91,9,4,9,0.00
2013-6-17,77.4,61.2,47.7,54.6,43.3,7.1,66,53,17,30.01,29.85,15,3,15,0.00
2013-6-18,67.5,58.6,47.9,51.8,44.5,20.3,68,60,30,29.91,29.83,15,4,15,0.00
2013-6-19,66.4,57.5,49.5,51.5,41.5,22.4,66,56,30,30.00,29.84,8,2,8,0.01
2013-6-20,68.0,57.8,49.3,52.4,37.6,0.5,66,49,12,30.01,29.95,10,2,10,0.18
2013-6-21,73.6,61.4,51.5,56.9,43.4,17.6,66,53,25,30.05,29.99,5,1,5,0.00
2013-6-22,82.1,66.8,49.0,58.1,46.7,-2.3,65,50,8,29.98,29.74,14,2,14,0.00
2013-6-23,74.9,64.0,58.7,61.3,40.7,4.4,66,45,10,29.74,29.51,11,2,11,0.16
2013-6-24,61.9,57.6,55.4,48.9,35.8,26.6,62,45,33,29.58,29.48,9,3,10,0.01
2013-6-25,65.9,62.7,59.0,53.6,42.2,-15.9,66,51,1,29.74,29.65,14,5,14,0.01
2013-6-26,72.4,63.9,57.4,59.3,29.4,1.1,65,32,1,29.91,29.74,8,1,8,0.11
2013-6-27,81.7,69.2,57.1,66.3,41.5,0.8,64,42,1,30.02,29.89,12,2,12,0.00
2013-6-28,90.7,72.9,58.0,71.2,46.8,2.0,63,42,1,30.02,29.91,12,3,12,0.00
2013-6-29,89.3,74.9,62.3,66.3,58.2,50.3,66,57,43,29.99,29.83,11,2,11,0.00
2013-6-30,93.6,74.9,59.2,71.5,55.4,5.2,64,52,10,29.85,29.74,14,3,14,0.00
2013-7-1,91.1,74.8,61.6,71.5,57.4,28.4,64,55,33,29.88,29.79,11,4,11,0.00
2013-7-2,89.1,73.9,60.1,70.4,54.7,10.8,64,52,16,29.95,29.87,14,4,14,0.00
2013-7-3,88.9,70.6,57.6,63.0,51.1,34.4,65,51,33,30.00,29.90,12,4,12,0.00
2013-7-4,81.4,65.5,51.1,59.8,49.8,34.9,66,58,42,30.01,29.88,10,2,15,0.00
2013-7-5,80.3,64.5,49.7,58.9,48.8,29.9,66,57,42,29.95,29.81,13,3,13,0.00
2013-7-6,81.2,65.1,49.9,62.8,49.6,28.7,65,58,39,29.84,29.73,11,3,12,0.00
2013-7-7,81.4,65.5,53.3,62.9,47.3,17.3,65,53,23,29.86,29.75,13,4,13,0.00
2013-7-8,85.5,67.8,51.8,62.5,49.5,11.1,65,53,18,29.95,29.85,8,2,9,0.00
2013-7-9,92.0,72.3,54.9,65.3,52.1,18.3,65,50,22,29.95,29.84,4,0,4,0.00
2013-7-10,85.9,68.6,54.5,62.5,52.2,37.9,66,57,41,29.93,29.80,0,0,0,0.00
2013-7-11,80.3,63.7,49.3,56.8,47.7,35.4,67,57,35,29.96,29.82,0,0,0,0.00
2013-7-12,78.8,63.2,49.3,55.2,46.5,35.8,67,56,34,29.97,29.86,0,0,0,0.00
2013-7-13,83.5,66.2,49.0,54.7,46.6,35.3,67,52,29,30.02,29.88,0,0,0,0.00
2013-7-14,90.0,70.4,51.8,60.9,50.2,36.5,65,51,26,29.95,29.82,0,0,0,0.00
2013-7-15,88.6,70.3,52.0,61.2,51.6,41.0,67,54,34,29.87,29.66,0,0,0,0.00
2013-7-16,80.3,66.4,57.2,63.5,52.0,40.7,65,60,49,29.90,29.64,0,0,0,0.00
2013-7-17,81.4,66.5,58.5,60.1,51.4,44.7,66,59,43,30.04,29.90,0,0,0,0.00
2013-7-18,87.8,68.0,51.1,64.3,50.8,28.9,66,55,38,30.06,29.93,0,0,0,0.00
2013-7-19,86.6,67.7,51.5,64.9,50.4,14.6,66,55,22,30.01,29.87,0,0,0,0.00
2013-7-20,86.0,66.8,52.2,64.9,49.3,22.3,65,54,28,29.95,29.80,0,0,0,0.00
2013-7-21,89.3,68.8,50.2,64.9,50.5,24.0,65,53,30,29.84,29.74,0,0,0,0.00
2013-7-22,89.1,70.8,53.6,61.1,51.2,28.4,65,51,34,29.90,29.79,0,0,0,0.00
2013-7-23,94.7,73.8,55.1,66.2,52.7,20.9,65,49,24,29.90,29.79,0,0,0,0.00
2013-7-24,93.6,74.3,56.5,64.2,54.3,40.6,66,52,30,29.90,29.82,0,0,0,0.00
2013-7-25,93.1,74.5,56.7,61.7,53.4,41.6,66,50,26,29.94,29.85,0,0,0,0.00
2013-7-26,93.4,72.5,54.9,60.5,52.0,41.4,67,51,27,30.01,29.90,0,0,0,0.00
2013-7-27,84.6,66.1,51.1,56.8,49.2,40.5,68,56,35,30.05,29.88,0,0,0,0.00
2013-7-28,80.5,64.3,49.0,58.7,49.0,31.9,67,58,45,29.94,29.82,0,0,0,0.00
2013-7-29,78.8,62.8,49.3,58.2,47.7,22.1,67,58,35,29.92,29.82,0,0,0,0.00
2013-7-30,82.6,64.7,50.8,61.5,48.4,26.6,65,56,37,30.01,29.91,0,0,0,0.00
2013-7-31,75.1,62.5,55.6,60.6,44.6,25.1,66,53,29,29.99,29.92,0,0,0,0.00
2013-8-1,65.5,61.4,57.6,53.8,47.4,35.4,67,60,44,30.00,29.95,0,0,0,0.00
2013-8-2,77.0,64.2,55.3,59.9,46.6,27.6,66,54,34,30.02,29.95,0,0,0,0.00
2013-8-3,85.3,67.5,52.6,62.6,45.9,0.5,66,48,3,29.98,29.83,0,0,0,0.01
2013-8-4,90.9,71.1,55.3,66.3,51.4,13.3,66,51,17,29.89,29.77,0,0,0,0.00
2013-8-5,91.3,71.7,55.4,67.6,53.3,30.0,66,53,37,29.88,29.77,0,0,0,0.00
2013-8-6,94.5,73.4,54.4,60.0,51.1,39.1,67,49,24,29.87,29.76,0,0,0,0.00
2013-8-7,72.4,62.2,55.6,57.6,49.3,33.1,67,63,43,29.92,29.81,0,0,0,0.00
2013-8-8,88.2,66.7,53.3,64.5,46.3,10.1,66,49,20,29.94,29.77,0,0,0,0.00
2013-8-9,87.3,70.3,60.8,65.3,54.2,35.8,66,57,41,29.82,29.69,0,0,0,0.00
2013-8-10,75.2,63.1,57.1,61.2,44.6,20.7,67,52,27,29.94,29.79,0,0,0,0.04
2013-8-11,75.6,63.0,57.2,60.2,46.2,23.4,67,55,28,29.95,29.87,0,0,0,0.00
2013-8-12,78.1,64.5,56.5,61.2,49.8,37.1,69,59,48,29.95,29.89,0,0,0,0.00
2013-8-13,86.0,61.7,48.6,61.8,46.3,24.0,68,58,34,29.98,29.84,0,0,0,0.00
2013-8-15,79.0,71.5,64.4,65.6,55.2,34.1,66,57,33,29.85,29.81,0,0,0,0.00
2013-8-16,85.3,70.9,61.9,68.6,46.7,6.9,68,45,11,29.94,29.84,0,0,0,0.00
2013-8-17,83.2,67.4,54.5,64.4,52.2,31.4,68,59,39,29.97,29.91,0,0,0,0.00
2013-8-18,87.1,69.4,55.4,65.5,50.2,18.8,67,52,22,30.02,29.89,0,0,0,0.00
2013-8-19,86.9,69.7,56.9,64.7,51.8,21.4,68,54,24,29.99,29.89,13,2,13,0.49
2013-8-20,87.1,69.8,52.4,57.5,50.2,38.6,69,52,26,30.00,29.83,4,0,4,0.00
2013-8-21,90.0,71.2,54.2,60.9,53.1,43.9,69,54,35,29.87,29.71,0,0,0,0.00
2013-8-22,82.6,68.1,59.8,61.9,53.6,40.2,68,60,47,29.80,29.73,0,0,0,0.00
2013-8-23,77.0,64.3,55.8,60.3,45.5,26.7,67,52,29,29.83,29.77,0,0,0,0.00
2013-8-24,76.5,66.3,59.9,60.3,51.5,40.1,69,59,47,29.79,29.73,0,0,0,0.00
2013-8-25,67.0,60.6,53.5,54.8,44.9,30.2,68,57,39,29.81,29.77,0,0,0,0.00
2013-8-26,79.4,64.0,52.9,57.5,37.8,-1.2,67,43,6,29.85,29.79,0,0,0,0.00
2013-8-27,84.2,66.7,61.4,63.2,53.0,44.4,66,62,44,29.84,29.67,0,0,0,0.00
2013-8-28,81.0,68.6,60.1,64.5,43.7,3.5,66,45,1,29.78,29.71,0,0,0,0.04
2013-8-29,76.0,67.6,61.9,63.4,35.5,4.9,66,36,1,29.95,29.73,0,0,0,0.12
2013-8-30,84.4,71.8,59.8,64.1,51.4,5.5,67,51,11,30.02,29.91,0,0,0,0.00
2013-8-31,89.3,69.3,54.4,64.7,51.2,19.8,66,54,22,29.91,29.71,0,0,0,0.00
2013-9-1,85.3,68.2,54.4,59.5,48.2,27.6,67,50,32,29.79,29.68,0,0,0,0.00
2013-9-2,79.9,68.4,62.6,58.2,52.6,43.1,67,58,44,29.82,29.75,0,0,0,0.00
2013-9-3,80.8,69.8,59.6,60.4,54.6,47.3,67,59,43,29.89,29.81,0,0,0,0.00
2013-9-4,75.8,66.4,59.2,60.9,52.2,40.4,66,60,50,29.92,29.88,0,0,0,0.00
2013-9-5,68.6,61.6,57.8,56.6,29.7,-2.7,66,35,1,29.95,29.87,0,0,0,1.60
2013-9-6,71.6,62.8,56.7,59.2,24.3,1.8,65,25,1,30.03,29.94,0,0,0,0.33
2013-9-7,78.8,63.0,52.9,63.7,25.1,-2.1,62,27,1,29.97,29.82,0,0,0,0.01
2013-9-8,85.7,69.1,55.4,67.3,35.4,-0.2,63,33,1,29.93,29.84,0,0,0,0.00
2013-9-9,86.4,70.5,56.9,67.3,40.3,0.8,62,38,1,29.89,29.77,0,0,0,0.00
2013-9-10,90.0,72.4,58.3,69.1,42.4,0.4,62,39,1,29.79,29.63,0,0,0,0.00
2013-9-11,86.4,69.2,57.8,65.4,39.4,1.6,62,37,1,29.84,29.66,0,0,0,0.00
2013-9-12,81.4,66.0,58.1,65.5,32.4,1.8,63,33,1,29.88,29.79,9,1,9,0.00
2013-9-13,81.7,65.0,55.1,65.8,29.0,-0.2,63,30,1,29.85,29.71,8,1,8,0.00
2013-9-14,77.8,64.5,56.9,62.9,22.0,0.8,61,21,1,29.72,29.59,5,0,5,0.00
2013-9-15,69.3,62.9,59.4,50.4,26.4,2.8,56,28,1,29.79,29.61,5,0,5,0.00
2013-9-16,73.6,63.4,58.3,59.1,37.2,5.2,63,42,12,29.86,29.77,11,1,11,0.00
2013-9-17,70.6,61.7,56.7,55.4,29.4,2.3,65,35,1,29.91,29.73,10,1,13,0.03
2013-9-18,73.4,60.7,51.1,56.3,31.7,-2.5,65,39,1,29.97,29.87,0,0,0,0.01
2013-9-19,79.7,59.1,44.1,58.2,38.8,-5.2,64,49,2,29.87,29.66,0,0,0,0.00
2013-9-20,72.0,57.3,47.3,57.1,35.7,-2.0,64,47,12,29.66,29.55,0,0,0,0.10
2013-9-21,64.5,59.7,51.5,58.1,55.1,50.7,97,85,72,29.77,29.69,3,1,11,0.01
2013-9-22,63.0,57.7,50.6,58.2,54.0,49.8,98,88,79,29.86,29.68,10,3,24,0.05
2013-9-23,62.5,57.5,53.6,57.9,54.6,52.2,97,90,78,29.97,29.86,6,1,16,0.05
2013-9-24,59.6,53.9,49.5,54.6,51.9,48.4,98,93,72,29.96,29.85,6,1,12,0.31
2013-9-25,61.3,51.9,47.2,53.5,48.7,46.4,98,89,69,30.02,29.85,5,1,10,0.22
2013-9-26,64.8,53.4,42.7,56.4,48.3,42.2,98,84,57,30.16,30.02,3,1,8,0.04
2013-9-27,55.3,50.2,40.7,54.1,48.8,40.2,98,95,89,30.16,29.93,6,2,16,0.33
2013-9-28,62.3,57.3,52.1,59.9,55.7,50.7,97,95,90,29.93,29.52,9,4,27,1.59
2013-9-29,57.5,53.9,52.5,55.1,52.2,48.1,97,94,77,29.69,29.43,12,5,24,2.32
2013-9-30,60.8,54.3,50.3,54.0,50.0,46.8,94,86,68,30.00,29.62,12,4,21,0.26
2013-10-1,60.8,51.5,42.3,52.7,47.2,41.5,98,86,54,30.18,29.98,10,1,17,0.45
2013-10-2,57.1,45.6,36.6,51.0,43.9,36.1,99,94,73,30.17,30.06,4,0,8,0.24
2013-10-3,60.1,46.1,37.6,49.8,42.8,37.2,99,90,59,30.39,30.17,4,0,10,0.01
2013-10-4,64.0,46.4,34.0,50.9,42.8,33.5,99,89,55,30.43,30.30,3,0,8,0.00
2013-10-5,69.8,50.1,35.1,52.7,44.5,34.6,99,84,49,30.31,30.11,2,0,7,0.00
2013-10-6,75.8,54.6,38.9,54.5,45.7,37.0,99,77,25,30.12,29.94,10,2,17,0.00
2013-10-7,63.1,55.0,47.5,52.2,49.0,45.9,95,81,56,30.14,29.98,9,2,17,0.00
2013-10-8,55.9,50.4,41.6,51.8,47.8,40.8,97,91,78,30.15,29.98,7,2,16,0.04
2013-10-9,62.0,48.1,37.0,45.7,41.9,36.5,98,82,49,30.07,29.95,5,1,11,0.00
2013-10-10,63.7,50.6,39.9,52.1,45.9,39.1,98,85,56,30.07,29.93,6,1,12,0.00
2013-10-11,59.2,52.5,45.3,47.0,44.9,40.9,93,76,53,30.12,30.06,4,0,9,0.00
2013-10-12,59.0,49.4,43.9,50.0,45.6,42.6,96,87,68,30.13,30.04,3,0,6,0.00
2013-10-13,62.0,47.8,38.2,48.8,44.0,37.7,98,88,58,30.26,30.13,4,1,9,0.00
2013-10-14,67.3,51.1,35.7,48.0,42.6,35.2,98,76,46,30.32,30.22,5,1,10,0.00
2013-10-15,69.6,51.7,35.7,44.9,40.8,34.4,97,70,35,30.25,30.09,5,0,11,0.00
2013-10-16,68.8,49.4,34.7,51.0,43.2,33.9,98,82,50,30.13,30.07,2,0,7,0.00
2013-10-17,65.4,47.1,37.5,50.9,43.3,36.8,98,88,56,30.20,30.10,3,0,8,0.00
2013-10-18,71.2,49.8,35.2,49.9,42.8,34.7,98,81,42,30.15,30.04,3,0,10,0.00
2013-10-19,70.5,49.0,34.1,53.0,43.9,33.4,98,85,51,30.13,30.06,2,0,5,0.00
2013-10-20,69.2,49.0,38.0,54.1,45.1,37.2,98,88,52,30.13,30.02,2,0,4,0.00
2013-10-21,72.3,49.2,37.2,55.4,45.7,36.7,98,89,52,30.07,29.94,3,0,5,0.00
2013-10-22,75.1,51.1,39.5,55.9,46.4,39.0,99,87,49,30.02,29.92,1,0,4,0.00
2013-10-23,72.0,51.3,40.9,57.6,48.2,40.4,99,90,58,29.99,29.91,2,0,4,0.00
2013-10-24,63.9,49.1,40.6,55.1,47.5,40.1,99,95,73,30.07,29.95,2,0,4,0.00
2013-10-25,52.6,49.7,46.4,50.3,48.6,45.9,99,96,91,30.24,30.07,3,1,7,0.00
2013-10-26,52.2,50.4,49.1,49.5,48.3,47.3,97,93,87,30.26,30.14,4,1,6,0.00
2013-10-27,57.1,51.2,44.4,52.5,46.8,41.4,97,85,66,30.15,29.80,9,1,16,0.10
2013-10-28,59.0,50.8,36.9,43.6,38.7,33.7,89,65,42,29.88,29.76,5,1,14,0.00
2013-10-29,59.1,41.6,28.7,38.0,33.0,27.7,97,75,35,30.05,29.88,3,0,6,0.00
2013-10-30,61.7,44.5,28.3,45.6,37.1,27.4,97,78,47,30.16,30.05,4,0,7,0.00
2013-10-31,57.7,52.8,47.0,53.1,48.3,42.5,98,85,72,30.24,30.15,2,0,6,0.00
2013-11-1,57.5,51.7,47.9,50.6,49.3,47.4,98,92,76,30.25,29.94,3,0,7,0.00
2013-11-2,55.6,48.8,38.9,50.1,44.9,37.8,98,87,63,30.08,29.77,13,4,22,0.25
2013-11-3,50.3,44.2,37.4,45.6,41.4,36.6,98,90,76,30.18,30.08,7,1,13,0.05
2013-11-4,50.7,46.5,41.7,46.5,44.3,40.5,97,92,81,30.17,30.10,6,2,14,0.11
2013-11-5,51.9,49.9,47.9,51.2,49.1,46.5,99,97,94,30.23,30.10,4,1,13,0.38
2013-11-6,59.9,54.0,50.4,57.3,53.2,50.0,99,97,89,30.26,30.07,2,0,5,0.05
2013-11-7,55.7,50.9,42.9,54.6,48.8,41.7,99,93,74,30.14,29.91,9,2,19,0.28
2013-11-8,53.2,47.0,40.5,48.8,45.4,40.0,98,94,81,30.19,30.08,3,0,8,0.03
2013-11-9,47.9,44.0,38.5,45.0,42.7,38.2,99,95,88,30.09,30.01,1,0,4,0.00
2013-11-10,54.8,44.2,37.5,50.1,43.0,37.2,99,96,83,30.07,30.02,2,0,4,0.00
2013-11-11,50.1,44.2,39.9,48.1,43.6,39.6,99,98,92,30.12,30.00,2,0,4,0.00
2013-11-12,58.6,49.4,45.0,55.9,48.8,44.7,99,98,90,30.40,30.08,3,0,6,0.25
2013-11-13,51.3,47.7,44.1,50.6,47.2,43.6,99,98,95,30.45,30.26,3,0,7,0.01
2013-11-14,52.0,47.1,42.8,47.9,45.5,42.5,99,94,82,30.27,30.08,3,1,6,0.11
2013-11-15,47.9,44.1,36.6,46.1,42.9,36.2,99,96,90,30.09,29.62,7,2,21,0.05
2013-11-16,52.2,47.6,44.5,47.1,43.4,41.7,98,86,70,29.87,29.59,12,3,21,0.08
2013-11-17,54.7,47.8,42.0,48.4,44.9,40.6,97,90,77,30.00,29.87,8,3,17,0.00
2013-11-18,51.4,48.0,43.3,49.0,45.3,42.0,97,90,79,29.99,29.74,7,2,17,0.42
2013-11-19,54.5,49.6,40.8,53.0,47.6,34.0,98,93,78,29.99,29.71,7,2,18,0.34
2013-11-20,45.7,38.4,31.4,35.0,30.8,23.0,94,75,61,30.33,30.00,5,1,16,0.01
2013-11-21,47.5,36.8,26.0,23.0,19.2,14.0,82,51,28,30.53,30.33,4,1,12,0.00
2013-11-22,50.8,32.1,19.5,27.0,22.5,18.0,95,72,33,30.53,30.34,5,0,14,0.00
2013-11-23,52.9,35.9,22.0,30.1,25.7,20.4,94,71,35,30.34,30.13,5,0,10,0.00
2013-11-24,53.1,33.7,22.5,33.5,27.5,21.3,97,80,46,30.26,30.14,2,0,5,0.00
2013-11-25,50.3,33.5,22.7,37.0,29.6,21.7,97,87,59,30.33,30.26,2,0,3,0.00
2013-11-26,44.9,35.4,26.0,39.8,33.2,25.3,98,92,81,30.27,30.05,2,0,4,0.00
2013-11-27,46.5,36.1,28.3,39.9,33.8,27.8,98,92,75,30.05,29.93,2,0,4,0.00
2013-11-28,51.7,35.8,25.7,38.9,32.0,25.2,98,87,58,30.19,30.00,1,0,3,0.00
2013-11-29,45.0,35.3,25.1,40.2,33.5,24.4,98,93,82,30.35,30.18,2,0,4,0.01
2013-11-30,51.5,42.8,33.7,46.7,41.1,32.9,98,94,81,30.38,30.23,4,0,6,0.01
2013-12-1,55.6,53.3,48.7,53.5,50.8,45.3,97,91,87,30.24,29.97,9,4,21,0.40
2013-12-2,52.4,42.6,33.0,51.6,40.4,32.2,98,92,81,30.04,29.92,8,3,18,1.01
2013-12-3,40.7,33.5,25.8,37.2,30.7,22.0,99,90,70,30.24,30.04,3,0,9,0.00
2013-12-4,37.6,28.5,20.9,24.7,19.9,16.7,93,72,43,30.30,30.23,5,0,11,0.00
2013-12-5,32.9,22.8,14.5,22.8,18.3,13.1,95,84,59,30.28,30.13,2,0,4,0.00
2013-12-6,28.1,25.5,22.9,25.0,22.1,16.8,95,87,73,30.14,29.91,2,0,13,0.00
2013-12-7,28.8,21.2,8.0,17.1,11.3,5.2,92,66,46,30.38,30.02,4,1,15,0.00
2013-12-8,25.1,11.5,-1.3,19.1,6.9,-4.0,92,82,61,30.56,30.41,3,0,5,0.00
2013-12-9,28.8,17.0,4.4,22.2,13.3,2.0,93,86,71,30.63,30.52,3,0,4,0.00
2013-12-10,33.3,23.8,16.6,26.6,20.9,15.2,96,89,75,30.54,30.39,2,0,4,0.00
2013-12-11,30.7,19.9,13.2,26.2,17.9,11.6,96,92,81,30.40,30.21,2,0,3,0.00
2013-12-12,38.6,26.5,14.8,37.8,25.4,13.2,98,96,93,30.22,30.11,3,0,9,0.00
2013-12-13,50.6,39.7,32.7,46.9,38.6,32.2,99,96,85,30.42,30.21,2,0,6,0.00
2013-12-14,40.7,38.0,36.1,40.2,37.6,35.8,99,99,97,30.45,30.36,4,0,6,0.00
2013-12-15,48.5,42.3,37.6,45.3,41.3,37.3,99,96,87,30.46,30.40,2,0,5,0.00
2013-12-16,45.7,43.1,39.3,44.0,41.8,38.8,98,95,89,30.45,30.23,5,1,10,0.00
2013-12-17,40.0,38.2,36.9,39.0,37.6,36.6,99,98,94,30.23,30.16,2,0,5,0.00
2013-12-18,41.6,38.2,33.2,41.1,37.8,32.7,99,99,97,30.17,30.03,4,0,8,0.00
2013-12-19,43.1,32.9,28.1,42.8,31.6,27.9,99,95,80,30.30,30.11,4,0,8,0.00
2013-12-20,42.5,36.8,31.3,42.2,35.8,30.5,99,96,90,30.23,29.93,6,2,17,0.00
2013-12-21,52.0,46.3,41.0,48.5,44.7,40.7,100,94,84,30.24,29.96,6,1,12,0.02
2013-12-22,56.1,47.1,40.7,49.8,45.3,40.2,99,94,79,30.35,30.24,6,0,10,0.06
2013-12-23,53.4,45.0,35.7,51.0,44.2,35.2,99,97,90,30.52,30.32,6,1,16,0.10
2013-12-24,44.8,33.8,29.3,44.3,33.5,29.1,99,99,91,30.58,30.46,3,0,6,0.02
2013-12-25,36.3,34.5,32.6,35.8,34.0,32.4,99,98,97,30.47,30.37,2,0,4,0.00
2013-12-26,34.0,33.0,31.2,33.7,32.7,31.0,99,99,98,30.39,30.22,1,0,3,0.00
2013-12-27,36.1,33.3,30.6,35.8,33.1,30.4,99,99,99,30.38,30.19,3,0,4,0.00
2013-12-28,43.6,37.7,31.8,40.8,36.1,31.6,99,94,85,30.49,30.38,2,0,8,0.00
2013-12-29,41.7,39.2,35.7,38.8,37.2,34.9,97,92,87,30.44,30.27,3,1,8,0.00
2013-12-30,41.3,37.0,33.7,38.8,36.0,33.1,99,96,90,30.27,30.18,2,0,5,0.00
2013-12-31,51.3,39.6,32.6,44.8,38.0,32.1,99,94,77,30.32,30.23,3,0,6,0.09
2014-1-1,40.1,36.7,30.8,39.8,36.4,30.6,99,99,98,30.35,30.25,2,0,4,0.00
2014-1-2,43.9,38.7,35.7,43.4,38.4,35.4,99,99,97,30.26,30.06,2,0,5,0.00